Hourly Weather Ganja

Today, 22 October, Thursday

Time Temperature Precipitation Wind Pressure Humidity
00:00 +13°C° 0 mm 2 mps 733 mmHg 87%
01:00 +13°C° 0 mm 1 mps 732 mmHg 88%
02:00 +12°C° 0 mm 1 mps 732 mmHg 89%
03:00 +12°C° 0 mm 1 mps 731 mmHg 89%
04:00 +12°C° 0 mm 1 mps 731 mmHg 89%
05:00 +12°C° 0 mm 1 mps 731 mmHg 89%
06:00 +12°C° 0 mm 1 mps 731 mmHg 90%
07:00 +13°C° 0 mm 1 mps 731 mmHg 85%
08:00 +14°C° 0 mm 1 mps 731 mmHg 80%
09:00 +15°C° 0 mm 1 mps 731 mmHg 75%
10:00 +16°C° 0 mm 1 mps 730 mmHg 70%
11:00 +18°C° 0 mm 1 mps 730 mmHg 65%
12:00 +18°C° 0 mm 2 mps 730 mmHg 60%
13:00 +18°C° 0 mm 2 mps 729 mmHg 58%
14:00 +20°C° 0 mm 1 mps 729 mmHg 56%
15:00 +20°C° 0 mm 1 mps 729 mmHg 54%
16:00 +20°C° 0 mm 1 mps 729 mmHg 57%
17:00 +19°C° 0 mm 1 mps 729 mmHg 61%
18:00 +16°C° 0 mm 0 mps 729 mmHg 64%
19:00 +16°C° 0 mm 0 mps 729 mmHg 64%
20:00 +18°C° 0 mm 1 mps 729 mmHg 64%
21:00 +18°C° 0 mm 1 mps 730 mmHg 63%
22:00 +16°C° 0 mm 1 mps 730 mmHg 65%
23:00 +16°C° 0 mm 1 mps 730 mmHg 66%

Tomorrow, 23 October, Friday

Time Temperature Precipitation Wind Pressure Humidity
00:00 +15°C° 0 mm 1 mps 729 mmHg 67%
01:00 +15°C° 0 mm 1 mps 729 mmHg 68%
02:00 +15°C° 0 mm 1 mps 729 mmHg 68%
03:00 +14°C° 0 mm 1 mps 730 mmHg 68%
04:00 +14°C° 0 mm 1 mps 730 mmHg 69%
05:00 +14°C° 0 mm 1 mps 730 mmHg 70%
06:00 +13°C° 0 mm 1 mps 730 mmHg 71%
07:00 +15°C° 0 mm 1 mps 730 mmHg 66%
08:00 +16°C° 0 mm 1 mps 730 mmHg 61%
09:00 +19°C° 0 mm 1 mps 730 mmHg 56%
10:00 +19°C° 0 mm 1 mps 730 mmHg 53%
11:00 +19°C° 0 mm 2 mps 730 mmHg 51%
12:00 +20°C° 0 mm 2 mps 730 mmHg 49%
13:00 +21°C° 0 mm 2 mps 730 mmHg 47%
14:00 +21°C° 0 mm 2 mps 730 mmHg 46%
15:00 +21°C° 0 mm 2 mps 729 mmHg 44%
16:00 +21°C° 0 mm 1 mps 730 mmHg 48%
17:00 +20°C° 0 mm 1 mps 730 mmHg 52%
18:00 +19°C° 0 mm 1 mps 730 mmHg 55%
19:00 +18°C° 0 mm 1 mps 730 mmHg 56%
20:00 +18°C° 0 mm 1 mps 730 mmHg 57%
21:00 +18°C° 0 mm 1 mps 731 mmHg 59%
22:00 +16°C° 0 mm 1 mps 731 mmHg 61%
23:00 +16°C° 0 mm 1 mps 730 mmHg 63%

Day after tomorrow, 24 October, Saturday

Time Temperature Precipitation Wind Pressure Humidity
00:00 +15°C° 0 mm 1 mps 730 mmHg 66%
01:00 +15°C° 0 mm 1 mps 730 mmHg 69%
02:00 +14°C° 0 mm 1 mps 730 mmHg 72%
03:00 +14°C° 0 mm 1 mps 730 mmHg 75%
04:00 +14°C° 0 mm 1 mps 729 mmHg 76%
05:00 +13°C° 0 mm 1 mps 729 mmHg 77%
06:00 +13°C° 0 mm 1 mps 729 mmHg 78%
07:00 +15°C° 0 mm 1 mps 729 mmHg 71%
08:00 +16°C° 0 mm 1 mps 729 mmHg 65%
09:00 +18°C° 0 mm 2 mps 729 mmHg 58%
10:00 +19°C° 0 mm 2 mps 729 mmHg 55%
11:00 +20°C° 0 mm 2 mps 728 mmHg 52%
12:00 +21°C° 0 mm 2 mps 728 mmHg 48%
13:00 +23°C° 0 mm 1 mps 727 mmHg 47%
14:00 +23°C° 0 mm 1 mps 727 mmHg 45%
15:00 +24°C° 0 mm 1 mps 727 mmHg 43%
16:00 +22°C° 0 mm 1 mps 727 mmHg 48%
17:00 +19°C° 0 mm 0 mps 727 mmHg 52%
18:00 +18°C° 0 mm 0 mps 727 mmHg 56%
19:00 +17°C° 0 mm 0 mps 727 mmHg 57%
20:00 +17°C° 0 mm 0 mps 727 mmHg 58%
21:00 +17°C° 0 mm 0 mps 727 mmHg 59%
22:00 +16°C° 0 mm 0 mps 727 mmHg 59%
23:00 +16°C° 0 mm 0 mps 727 mmHg 60%

, 25 October, Sunday

Time Temperature Precipitation Wind Pressure Humidity
00:00 +16°C° 0 mm 0 mps 727 mmHg 60%
01:00 +15°C° 0 mm 0 mps 727 mmHg 60%
02:00 +16°C° 0 mm 1 mps 727 mmHg 60%
03:00 +16°C° 0 mm 1 mps 726 mmHg 60%
04:00 +16°C° 0 mm 1 mps 726 mmHg 59%
05:00 +16°C° 0 mm 1 mps 726 mmHg 59%
06:00 +15°C° 0 mm 1 mps 726 mmHg 58%
07:00 +18°C° 0 mm 1 mps 726 mmHg 53%
08:00 +20°C° 0 mm 1 mps 726 mmHg 48%
09:00 +22°C° 0 mm 1 mps 727 mmHg 43%
10:00 +23°C° 0 mm 1 mps 726 mmHg 41%
11:00 +24°C° 0 mm 1 mps 726 mmHg 39%
12:00 +25°C° 0 mm 2 mps 725 mmHg 37%
13:00 +25°C° 0 mm 1 mps 725 mmHg 36%
14:00 +26°C° 0 mm 1 mps 725 mmHg 36%
15:00 +26°C° 0 mm 1 mps 725 mmHg 35%
16:00 +25°C° 0 mm 1 mps 725 mmHg 39%
17:00 +23°C° 0 mm 1 mps 725 mmHg 43%
18:00 +22°C° 0 mm 1 mps 725 mmHg 47%
19:00 +21°C° 0 mm 1 mps 725 mmHg 47%
20:00 +21°C° 0 mm 1 mps 725 mmHg 46%
21:00 +21°C° 0 mm 1 mps 725 mmHg 46%
22:00 +20°C° 0 mm 1 mps 725 mmHg 47%
23:00 +20°C° 0 mm 1 mps 725 mmHg 48%

25 October, Sunday

Time Temperature Precipitation Wind Pressure Humidity
00:00 +16°C° 0 mm 0 mps 727 mmHg 60%
01:00 +15°C° 0 mm 0 mps 727 mmHg 60%
02:00 +16°C° 0 mm 1 mps 727 mmHg 60%
03:00 +16°C° 0 mm 1 mps 726 mmHg 60%
04:00 +16°C° 0 mm 1 mps 726 mmHg 59%
05:00 +16°C° 0 mm 1 mps 726 mmHg 59%
06:00 +15°C° 0 mm 1 mps 726 mmHg 58%
07:00 +18°C° 0 mm 1 mps 726 mmHg 53%
08:00 +20°C° 0 mm 1 mps 726 mmHg 48%
09:00 +22°C° 0 mm 1 mps 727 mmHg 43%
10:00 +23°C° 0 mm 1 mps 726 mmHg 41%
11:00 +24°C° 0 mm 1 mps 726 mmHg 39%
12:00 +25°C° 0 mm 2 mps 725 mmHg 37%
13:00 +25°C° 0 mm 1 mps 725 mmHg 36%
14:00 +26°C° 0 mm 1 mps 725 mmHg 36%
15:00 +26°C° 0 mm 1 mps 725 mmHg 35%
16:00 +25°C° 0 mm 1 mps 725 mmHg 39%
17:00 +23°C° 0 mm 1 mps 725 mmHg 43%
18:00 +22°C° 0 mm 1 mps 725 mmHg 47%
19:00 +21°C° 0 mm 1 mps 725 mmHg 47%
20:00 +21°C° 0 mm 1 mps 725 mmHg 46%
21:00 +21°C° 0 mm 1 mps 725 mmHg 46%
22:00 +20°C° 0 mm 1 mps 725 mmHg 47%
23:00 +20°C° 0 mm 1 mps 725 mmHg 48%

26 October, Monday

Time Temperature Precipitation Wind Pressure Humidity
00:00 +19°C° 0 mm 1 mps 725 mmHg 50%
01:00 +19°C° 0 mm 1 mps 725 mmHg 49%
02:00 +19°C° 0 mm 1 mps 725 mmHg 49%
03:00 +19°C° 0 mm 1 mps 725 mmHg 49%
04:00 +18°C° 0 mm 1 mps 726 mmHg 50%
05:00 +18°C° 0 mm 1 mps 726 mmHg 51%
06:00 +18°C° 0 mm 1 mps 726 mmHg 53%
07:00 +19°C° 0 mm 1 mps 726 mmHg 50%
08:00 +20°C° 0 mm 1 mps 727 mmHg 47%
09:00 +22°C° 0 mm 1 mps 727 mmHg 44%
10:00 +22°C° 0 mm 1 mps 727 mmHg 43%
11:00 +23°C° 0 mm 2 mps 727 mmHg 43%
12:00 +24°C° 0 mm 2 mps 727 mmHg 42%
13:00 +24°C° 0 mm 2 mps 727 mmHg 41%
14:00 +25°C° 0 mm 2 mps 727 mmHg 40%
15:00 +25°C° 0 mm 2 mps 727 mmHg 39%
16:00 +24°C° 0 mm 1 mps 727 mmHg 44%
17:00 +22°C° 0 mm 1 mps 727 mmHg 49%
18:00 +21°C° 0 mm 1 mps 727 mmHg 55%
19:00 +20°C° 0 mm 1 mps 728 mmHg 54%
20:00 +19°C° 0 mm 2 mps 728 mmHg 53%
21:00 +19°C° 0 mm 2 mps 728 mmHg 52%
22:00 +18°C° 0 mm 2 mps 728 mmHg 51%
23:00 +18°C° 0 mm 2 mps 728 mmHg 51%

27 October, Tuesday

Time Temperature Precipitation Wind Pressure Humidity
00:00 +17°C° 0 mm 2 mps 728 mmHg 50%
01:00 +16°C° 0 mm 2 mps 728 mmHg 53%
02:00 +16°C° 0 mm 2 mps 728 mmHg 55%
03:00 +15°C° 0 mm 1 mps 728 mmHg 58%
04:00 +15°C° 0 mm 1 mps 729 mmHg 60%
05:00 +14°C° 0 mm 1 mps 729 mmHg 62%
06:00 +14°C° 0 mm 1 mps 729 mmHg 64%
07:00 +15°C° 0 mm 1 mps 729 mmHg 60%
08:00 +16°C° 0 mm 1 mps 729 mmHg 56%
09:00 +18°C° 0 mm 2 mps 730 mmHg 52%
10:00 +19°C° 0 mm 2 mps 730 mmHg 50%
11:00 +20°C° 0 mm 3 mps 730 mmHg 47%
12:00 +21°C° 0 mm 4 mps 730 mmHg 44%
13:00 +21°C° 0 mm 4 mps 730 mmHg 46%
14:00 +21°C° 0 mm 4 mps 730 mmHg 47%
15:00 +21°C° 0 mm 4 mps 730 mmHg 48%
16:00 +20°C° 0 mm 4 mps 730 mmHg 54%
17:00 +19°C° 0 mm 4 mps 730 mmHg 60%
18:00 +17°C° 0 mm 3 mps 731 mmHg 67%
19:00 +17°C° 0 mm 3 mps 731 mmHg 69%
20:00 +16°C° 0 mm 3 mps 731 mmHg 71%
21:00 +15°C° 0 mm 4 mps 731 mmHg 73%
22:00 +14°C° 0 mm 3 mps 731 mmHg 77%
23:00 +13°C° 0 mm 3 mps 731 mmHg 80%
Show more